| time (UTC) | temp C | wind direction | speed KPH | gust KPH | rain 1hr cm | rain 24hr cm | rain mn cm | humidity % | barometer mb |
| 20260510190506 | 27 | 210 | 3.2 | 8.0 | 0.00 | 0.00 | 0.00 | 34 | 1015.3 |
| 20260510190006 | 27 | 299 | 3.2 | 11.3 | 0.00 | 0.00 | 0.00 | 36 | 1015.3 |
| 20260510185506 | 27 | 281 | 1.6 | 14.5 | 0.00 | 0.00 | 0.00 | 34 | 1015.4 |
| 20260510184506 | 27 | 253 | 3.2 | 8.0 | 0.00 | 0.00 | 0.00 | 36 | 1015.4 |
| 20260510184020 | 27 | 258 | 6.4 | 14.5 | 0.00 | 0.00 | 0.00 | 35 | 1015.4 |
| 20260510183006 | 26 | 238 | 4.8 | 16.1 | 0.00 | 0.00 | 0.00 | 36 | 1015.5 |
| 20260510182506 | 27 | 241 | 8.0 | 19.3 | 0.00 | 0.00 | 0.00 | 34 | 1015.6 |
| 20260510182006 | 28 | 230 | 1.6 | 4.8 | 0.00 | 0.00 | 0.00 | 37 | 1015.5 |
| 20260510181506 | 26 | 136 | 3.2 | 12.9 | 0.00 | 0.00 | 0.00 | 37 | 1015.6 |
| 20260510181006 | 26 | 258 | 6.4 | 19.3 | 0.00 | 0.00 | 0.00 | 39 | 1015.8 |
| 20260510180505 | 27 | 256 | 4.8 | 11.3 | 0.00 | 0.00 | 0.00 | 37 | 1015.8 |
| 20260510180005 | 27 | 147 | 3.2 | 19.3 | 0.00 | 0.00 | 0.00 | 39 | 1015.8 |
| 20260510175506 | 27 | 254 | 3.2 | 8.0 | 0.00 | 0.00 | 0.00 | 39 | 1015.8 |
| 20260510175005 | 27 | 337 | 3.2 | 8.0 | 0.00 | 0.00 | 0.00 | 38 | 1015.8 |
| 20260510174506 | 27 | 288 | 6.4 | 19.3 | 0.00 | 0.00 | 0.00 | 38 | 1015.9 |
| 20260510174006 | 26 | 335 | 1.6 | 4.8 | 0.00 | 0.00 | 0.00 | 41 | 1015.9 |
| 20260510173506 | 26 | 199 | 4.8 | 14.5 | 0.00 | 0.00 | 0.00 | 39 | 1016.2 |
| 20260510173006 | 26 | 270 | 1.6 | 12.9 | 0.00 | 0.00 | 0.00 | 41 | 1016.2 |
| 20260510172507 | 26 | 300 | 6.4 | 16.1 | 0.00 | 0.00 | 0.00 | 40 | 1016.1 |
| 20260510172005 | 26 | 0 | 1.6 | 4.8 | 0.00 | 0.00 | 0.00 | 40 | 1016.1 |
| 20260510171505 | 26 | 109 | 3.2 | 4.8 | 0.00 | 0.00 | 0.00 | 42 | 1016.2 |
| 20260510171005 | 25 | 120 | 1.6 | 8.0 | 0.00 | 0.00 | 0.00 | 44 | 1016.3 |
| 20260510170505 | 25 | 314 | 1.6 | 4.8 | 0.00 | 0.00 | 0.00 | 45 | 1016.3 |
| 20260510165005 | 24 | 165 | 1.6 | 4.8 | 0.00 | 0.00 | 0.00 | 46 | 1016.3 |
| 20260510164506 | 24 | 261 | 0.0 | 9.7 | 0.00 | 0.00 | 0.00 | 46 | 1016.4 |
| 20260510164005 | 24 | 326 | 3.2 | 9.7 | 0.00 | 0.00 | 0.00 | 45 | 1016.4 |
| 20260510163005 | 23 | 246 | 1.6 | 8.0 | 0.00 | 0.00 | 0.00 | 46 | 1016.4 |
| 20260510162505 | 23 | 292 | 3.2 | 8.0 | 0.00 | 0.00 | 0.00 | 46 | 1016.5 |
| 20260510162005 | 23 | 252 | 4.8 | 12.9 | 0.00 | 0.00 | 0.00 | 45 | 1016.6 |
| 20260510161505 | 23 | 252 | 1.6 | 9.7 | 0.00 | 0.00 | 0.00 | 45 | 1016.6 |
| 20260510161006 | 23 | 264 | 4.8 | 11.3 | 0.00 | 0.00 | 0.00 | 45 | 1016.6 |
| 20260510160505 | 23 | 274 | 3.2 | 11.3 | 0.00 | 0.00 | 0.00 | 46 | 1016.6 |
| 20260510160005 | 23 | 253 | 8.0 | 19.3 | 0.00 | 0.00 | 0.00 | 45 | 1016.7 |
| 20260510155005 | 23 | 161 | 3.2 | 9.7 | 0.00 | 0.00 | 0.00 | 45 | 1016.7 |
| 20260510154507 | 23 | 293 | 1.6 | 4.8 | 0.00 | 0.00 | 0.00 | 49 | 1016.7 |
| 20260510154005 | 23 | 201 | 4.8 | 9.7 | 0.00 | 0.00 | 0.00 | 46 | 1016.8 |
| 20260510153506 | 23 | 258 | 3.2 | 8.0 | 0.00 | 0.00 | 0.00 | 46 | 1016.8 |
| 20260510153005 | 23 | 204 | 3.2 | 4.8 | 0.00 | 0.00 | 0.00 | 48 | 1016.8 |
| 20260510152005 | 22 | 261 | 3.2 | 8.0 | 0.00 | 0.00 | 0.00 | 49 | 1016.7 |
| 20260510150506 | 22 | 226 | 1.6 | 4.8 | 0.00 | 0.00 | 0.00 | 50 | 1016.8 |
| 20260510150005 | 22 | 244 | 3.2 | 16.1 | 0.00 | 0.00 | 0.00 | 50 | 1016.8 |
| 20260510145505 | 22 | 213 | 8.0 | 19.3 | 0.00 | 0.00 | 0.00 | 48 | 1016.9 |
| 20260510145005 | 22 | 230 | 1.6 | 4.8 | 0.00 | 0.00 | 0.00 | 51 | 1016.7 |
| 20260510144005 | 21 | 262 | 3.2 | 4.8 | 0.00 | 0.00 | 0.00 | 52 | 1016.8 |
| 20260510143505 | 21 | 260 | 1.6 | 11.3 | 0.00 | 0.00 | 0.00 | 53 | 1016.8 |
| 20260510143005 | 21 | 248 | 6.4 | 14.5 | 0.00 | 0.00 | 0.00 | 53 | 1016.9 |
| 20260510142505 | 21 | 146 | 4.8 | 12.9 | 0.00 | 0.00 | 0.00 | 51 | 1016.8 |
| 20260510142005 | 21 | 215 | 1.6 | 8.0 | 0.00 | 0.00 | 0.00 | 53 | 1016.7 |
| 20260510141505 | 21 | 276 | 1.6 | 3.2 | 0.00 | 0.00 | 0.00 | 54 | 1016.7 |
| 20260510141005 | 21 | 126 | 1.6 | 4.8 | 0.00 | 0.00 | 0.00 | 54 | 1016.6 |
| 20260510140505 | 20 | 250 | 1.6 | 11.3 | 0.00 | 0.00 | 0.00 | 55 | 1016.7 |
| 20260510140005 | 20 | 241 | 1.6 | 12.9 | 0.00 | 0.00 | 0.00 | 56 | 1016.8 |
| 20260510135505 | 20 | 244 | 1.6 | 4.8 | 0.00 | 0.00 | 0.00 | 56 | 1016.9 |
| 20260510135005 | 20 | 155 | 1.6 | 11.3 | 0.00 | 0.00 | 0.00 | 56 | 1016.9 |
| 20260510134505 | 19 | 233 | 3.2 | 9.7 | 0.00 | 0.00 | 0.00 | 59 | 1016.8 |
| 20260510134005 | 18 | 267 | 3.2 | 4.8 | 0.00 | 0.00 | 0.00 | 59 | 1016.8 |
| 20260510133505 | 18 | 348 | 1.6 | 9.7 | 0.00 | 0.00 | 0.00 | 64 | 1016.8 |
| 20260510132506 | 17 | 126 | 0.0 | 1.6 | 0.00 | 0.00 | 0.00 | 72 | 1016.9 |
| 20260510132005 | 16 | 237 | 0.0 | 1.6 | 0.00 | 0.00 | 0.00 | 75 | 1016.8 |
| 20260510131505 | 16 | 240 | 0.0 | 1.6 | 0.00 | 0.00 | 0.00 | 76 | 1016.8 |
| 20260510131005 | 16 | 240 | 0.0 | 1.6 | 0.00 | 0.00 | 0.00 | 76 | 1016.8 |
| 20260510130505 | 15 | 240 | 0.0 | 0.0 | 0.00 | 0.00 | 0.00 | 78 | 1016.8 |
| 20260510130005 | 15 | 240 | 0.0 | 1.6 | 0.00 | 0.00 | 0.00 | 78 | 1016.7 |
| 20260510125505 | 15 | 240 | 1.6 | 1.6 | 0.00 | 0.00 | 0.00 | 80 | 1016.6 |
| 20260510125005 | 14 | 247 | 0.0 | 0.0 | 0.00 | 0.00 | 0.00 | 82 | 1016.6 |
| 20260510124505 | 13 | 246 | 0.0 | 0.0 | 0.00 | 0.00 | 0.00 | 84 | 1016.6 |
| 20260510124005 | 13 | 246 | 0.0 | 0.0 | 0.00 | 0.00 | 0.00 | 85 | 1016.6 |
| 20260510123505 | 13 | 248 | 0.0 | 0.0 | 0.00 | 0.00 | 0.00 | 87 | 1016.5 |
| 20260510123004 | 12 | 248 | 0.0 | 0.0 | 0.00 | 0.00 | 0.00 | 88 | 1016.4 |
| 20260510122005 | 11 | 248 | 0.0 | 0.0 | 0.00 | 0.00 | 0.00 | 89 | 1016.4 |
| 20260510121505 | 11 | 248 | 0.0 | 0.0 | 0.00 | 0.00 | 0.00 | 89 | 1016.4 |
| 20260510121005 | 11 | 248 | 0.0 | 1.6 | 0.00 | 0.00 | 0.00 | 90 | 1016.4 |
| 20260510120505 | 11 | 248 | 0.0 | 1.6 | 0.00 | 0.00 | 0.00 | 91 | 1016.5 |
| 20260510120005 | 10 | 248 | 0.0 | 1.6 | 0.00 | 0.00 | 0.00 | 91 | 1016.4 |
| 20260510115004 | 10 | 248 | 0.0 | 1.6 | 0.00 | 0.00 | 0.00 | 93 | 1016.3 |
| 20260510114505 | 10 | 248 | 0.0 | 1.6 | 0.00 | 0.00 | 0.00 | 93 | 1016.3 |
| 20260510114005 | 9 | 100 | 0.0 | 0.0 | 0.00 | 0.00 | 0.00 | 94 | 1016.1 |
| 20260510113505 | 8 | 100 | 0.0 | 0.0 | 0.00 | 0.00 | 0.00 | 94 | 1016.1 |
| 20260510112505 | 8 | 100 | 0.0 | 0.0 | 0.00 | 0.00 | 0.00 | 93 | 1016.0 |
| 20260510112005 | 8 | 100 | 0.0 | 0.0 | 0.00 | 0.00 | 0.00 | 93 | 1016.0 |
| 20260510111504 | 8 | 99 | 0.0 | 0.0 | 0.00 | 0.00 | 0.00 | 93 | 1015.8 |
| 20260510111005 | 8 | 99 | 0.0 | 0.0 | 0.00 | 0.00 | 0.00 | 93 | 1015.7 |
| 20260510110505 | 8 | 99 | 0.0 | 0.0 | 0.00 | 0.00 | 0.00 | 93 | 1015.7 |
| 20260510110005 | 8 | 99 | 0.0 | 0.0 | 0.00 | 0.00 | 0.00 | 93 | 1015.6 |
| 20260510105504 | 8 | 99 | 0.0 | 0.0 | 0.00 | 0.00 | 0.00 | 93 | 1015.5 |
| 20260510105004 | 8 | 99 | 0.0 | 0.0 | 0.00 | 0.00 | 0.00 | 93 | 1015.4 |
| 20260510104505 | 8 | 82 | 1.6 | 4.8 | 0.00 | 0.00 | 0.00 | 93 | 1015.4 |
| 20260510104006 | 8 | 313 | 1.6 | 4.8 | 0.00 | 0.00 | 0.00 | 93 | 1015.4 |
| 20260510103505 | 8 | 304 | 1.6 | 4.8 | 0.00 | 0.00 | 0.00 | 93 | 1015.3 |
| 20260510103004 | 8 | 53 | 1.6 | 4.8 | 0.00 | 0.00 | 0.00 | 92 | 1015.2 |
| 20260510102504 | 8 | 121 | 0.0 | 0.0 | 0.00 | 0.00 | 0.00 | 92 | 1015.1 |
| 20260510102004 | 8 | 285 | 0.0 | 0.0 | 0.00 | 0.00 | 0.00 | 92 | 1015.0 |
| 20260510101504 | 8 | 259 | 0.0 | 0.0 | 0.00 | 0.00 | 0.00 | 92 | 1015.0 |
| 20260510101005 | 8 | 218 | 0.0 | 0.0 | 0.00 | 0.00 | 0.00 | 91 | 1014.9 |
| 20260510100505 | 8 | 327 | 0.0 | 4.8 | 0.00 | 0.00 | 0.00 | 91 | 1014.8 |
| 20260510100005 | 8 | 264 | 0.0 | 3.2 | 0.00 | 0.00 | 0.00 | 91 | 1014.8 |
| 20260510095004 | 8 | 245 | 1.6 | 3.2 | 0.00 | 0.00 | 0.00 | 90 | 1014.8 |
| 20260510094504 | 8 | 155 | 0.0 | 1.6 | 0.00 | 0.00 | 0.00 | 90 | 1014.8 |
| 20260510094004 | 8 | 155 | 0.0 | 1.6 | 0.00 | 0.00 | 0.00 | 90 | 1014.8 |
| 20260510093505 | 8 | 144 | 1.6 | 3.2 | 0.00 | 0.00 | 0.00 | 90 | 1014.7 |
| 20260510093004 | 8 | 205 | 0.0 | 1.6 | 0.00 | 0.00 | 0.00 | 90 | 1014.7 |
| 20260510092505 | 9 | 131 | 0.0 | 1.6 | 0.00 | 0.00 | 0.00 | 89 | 1014.6 |
| 20260510092004 | 9 | 256 | 1.6 | 4.8 | 0.00 | 0.00 | 0.00 | 89 | 1014.5 |
| 20260510091505 | 9 | 298 | 0.0 | 1.6 | 0.00 | 0.00 | 0.00 | 88 | 1014.5 |
| 20260510091004 | 10 | 265 | 0.0 | 1.6 | 0.00 | 0.00 | 0.00 | 88 | 1014.4 |
| 20260510090004 | 9 | 84 | 1.6 | 4.8 | 0.00 | 0.00 | 0.00 | 89 | 1014.2 |
| 20260510085505 | 9 | 96 | 3.2 | 8.0 | 0.00 | 0.00 | 0.00 | 89 | 1014.2 |
| 20260510085005 | 9 | 329 | 1.6 | 3.2 | 0.00 | 0.00 | 0.00 | 89 | 1014.3 |
| 20260510083004 | 9 | 107 | 1.6 | 4.8 | 0.00 | 0.00 | 0.00 | 90 | 1014.1 |
| 20260510082504 | 9 | 109 | 1.6 | 4.8 | 0.00 | 0.00 | 0.00 | 89 | 1014.2 |
| 20260510082006 | 9 | 259 | 0.0 | 4.8 | 0.00 | 0.00 | 0.00 | 89 | 1014.2 |
| 20260510081504 | 9 | 91 | 1.6 | 1.6 | 0.00 | 0.00 | 0.00 | 89 | 1014.2 |
| 20260510081005 | 9 | 86 | 0.0 | 3.2 | 0.00 | 0.00 | 0.00 | 89 | 1014.2 |
| 20260510080504 | 9 | 260 | 1.6 | 4.8 | 0.00 | 0.00 | 0.00 | 89 | 1014.1 |
| 20260510080004 | 9 | 37 | 0.0 | 4.8 | 0.00 | 0.00 | 0.00 | 89 | 1013.9 |
| 20260510075504 | 9 | 90 | 1.6 | 1.6 | 0.00 | 0.00 | 0.00 | 89 | 1013.8 |
| 20260510075004 | 9 | 280 | 1.6 | 3.2 | 0.00 | 0.00 | 0.00 | 89 | 1013.8 |
| 20260510074004 | 9 | 253 | 0.0 | 0.0 | 0.00 | 0.00 | 0.00 | 89 | 1013.6 |
| 20260510072504 | 10 | 257 | 0.0 | 0.0 | 0.00 | 0.00 | 0.00 | 87 | 1013.7 |
| 20260510072004 | 10 | 16 | 0.0 | 0.0 | 0.00 | 0.00 | 0.00 | 86 | 1013.7 |
| 20260510071504 | 10 | 58 | 0.0 | 0.0 | 0.00 | 0.00 | 0.00 | 86 | 1013.7 |
| 20260510071004 | 10 | 118 | 0.0 | 0.0 | 0.00 | 0.00 | 0.00 | 85 | 1013.7 |
| 20260510070504 | 10 | 193 | 0.0 | 0.0 | 0.00 | 0.00 | 0.00 | 85 | 1013.6 |
| 20260510070004 | 10 | 193 | 0.0 | 0.0 | 0.00 | 0.00 | 0.00 | 84 | 1013.6 |
| 20260510065503 | 10 | 193 | 0.0 | 0.0 | 0.00 | 0.00 | 0.00 | 84 | 1013.6 |
| 20260510065004 | 10 | 193 | 0.0 | 0.0 | 0.00 | 0.00 | 0.00 | 84 | 1013.5 |
| 20260510064504 | 10 | 193 | 0.0 | 0.0 | 0.00 | 0.00 | 0.00 | 84 | 1013.6 |
| 20260510064005 | 11 | 193 | 0.0 | 0.0 | 0.00 | 0.00 | 0.00 | 83 | 1013.6 |
| 20260510063505 | 11 | 193 | 0.0 | 0.0 | 0.00 | 0.00 | 0.00 | 83 | 1013.6 |
| 20260510063004 | 11 | 193 | 0.0 | 0.0 | 0.00 | 0.00 | 0.00 | 83 | 1013.7 |
| 20260510061504 | 11 | 186 | 0.0 | 0.0 | 0.00 | 0.00 | 0.00 | 82 | 1013.8 |
| 20260510061004 | 11 | 186 | 0.0 | 0.0 | 0.00 | 0.00 | 0.00 | 82 | 1013.8 |
| 20260510060504 | 11 | 187 | 0.0 | 0.0 | 0.00 | 0.00 | 0.00 | 81 | 1013.8 |
| 20260510060004 | 11 | 169 | 0.0 | 0.0 | 0.00 | 0.00 | 0.00 | 80 | 1013.8 |
| 20260510055504 | 12 | 169 | 0.0 | 0.0 | 0.00 | 0.00 | 0.00 | 80 | 1013.9 |
| 20260510054504 | 12 | 177 | 0.0 | 0.0 | 0.00 | 0.00 | 0.00 | 79 | 1013.8 |
| 20260510054004 | 12 | 221 | 0.0 | 0.0 | 0.00 | 0.00 | 0.00 | 79 | 1013.9 |
| 20260510053505 | 12 | 146 | 0.0 | 0.0 | 0.00 | 0.00 | 0.00 | 78 | 1013.8 |
| 20260510053004 | 12 | 146 | 0.0 | 0.0 | 0.00 | 0.00 | 0.00 | 78 | 1013.7 |
| 20260510052505 | 12 | 146 | 0.0 | 0.0 | 0.00 | 0.00 | 0.00 | 78 | 1013.8 |
| 20260510051504 | 12 | 143 | 0.0 | 0.0 | 0.00 | 0.00 | 0.00 | 77 | 1013.8 |
| 20260510050504 | 12 | 143 | 0.0 | 0.0 | 0.00 | 0.00 | 0.00 | 77 | 1013.9 |
| 20260510045529 | 12 | 143 | 0.0 | 0.0 | 0.00 | 0.00 | 0.00 | 77 | 1013.9 |
| 20260510045028 | 12 | 143 | 0.0 | 1.6 | 0.00 | 0.00 | 0.00 | 76 | 1013.9 |
| 20260510044528 | 12 | 141 | 0.0 | 1.6 | 0.00 | 0.00 | 0.00 | 77 | 1013.8 |
| 20260510043529 | 12 | 172 | 0.0 | 0.0 | 0.00 | 0.00 | 0.00 | 78 | 1013.7 |
| 20260510041529 | 12 | 210 | 0.0 | 0.0 | 0.00 | 0.00 | 0.00 | 77 | 1013.8 |
| 20260510041028 | 12 | 210 | 0.0 | 0.0 | 0.00 | 0.00 | 0.00 | 76 | 1013.7 |
| 20260510040529 | 12 | 210 | 0.0 | 0.0 | 0.00 | 0.00 | 0.00 | 76 | 1013.7 |
| 20260510035528 | 13 | 209 | 0.0 | 0.0 | 0.00 | 0.00 | 0.00 | 74 | 1013.8 |
| 20260510035029 | 13 | 209 | 0.0 | 0.0 | 0.00 | 0.00 | 0.00 | 73 | 1013.7 |
| 20260510034528 | 13 | 209 | 0.0 | 0.0 | 0.00 | 0.00 | 0.00 | 74 | 1013.7 |
| 20260510034029 | 13 | 209 | 0.0 | 0.0 | 0.00 | 0.00 | 0.00 | 74 | 1013.7 |
| 20260510033529 | 13 | 210 | 0.0 | 0.0 | 0.00 | 0.00 | 0.00 | 74 | 1013.7 |
| 20260510033029 | 13 | 214 | 0.0 | 0.0 | 0.00 | 0.00 | 0.00 | 73 | 1013.7 |
| 20260510032028 | 13 | 215 | 0.0 | 0.0 | 0.00 | 0.00 | 0.00 | 71 | 1013.5 |
| 20260510031528 | 13 | 215 | 0.0 | 0.0 | 0.00 | 0.00 | 0.00 | 71 | 1013.4 |
| 20260510030529 | 14 | 214 | 0.0 | 0.0 | 0.00 | 0.00 | 0.00 | 69 | 1013.4 |
| 20260510030028 | 14 | 214 | 0.0 | 0.0 | 0.00 | 0.00 | 0.00 | 68 | 1013.5 |
| 20260510025529 | 14 | 214 | 0.0 | 0.0 | 0.00 | 0.00 | 0.00 | 67 | 1013.4 |
| 20260510023030 | 15 | 214 | 0.0 | 0.0 | 0.00 | 0.00 | 0.00 | 64 | 1013.2 |
| 20260510022528 | 16 | 214 | 0.0 | 1.6 | 0.00 | 0.00 | 0.00 | 63 | 1013.2 |
| 20260510022028 | 16 | 237 | 1.6 | 1.6 | 0.00 | 0.00 | 0.00 | 61 | 1013.1 |
| 20260510021528 | 16 | 263 | 0.0 | 1.6 | 0.00 | 0.00 | 0.00 | 59 | 1012.9 |
| 20260510021028 | 16 | 280 | 1.6 | 4.8 | 0.00 | 0.00 | 0.00 | 60 | 1012.9 |
| 20260510020028 | 17 | 231 | 1.6 | 3.2 | 0.00 | 0.00 | 0.00 | 58 | 1012.7 |
| 20260510015529 | 17 | 227 | 1.6 | 4.8 | 0.00 | 0.00 | 0.00 | 57 | 1012.6 |
| 20260510015028 | 17 | 260 | 1.6 | 4.8 | 0.00 | 0.00 | 0.00 | 57 | 1012.5 |
| 20260510014528 | 17 | 243 | 3.2 | 4.8 | 0.00 | 0.00 | 0.00 | 56 | 1012.6 |
| 20260510013528 | 17 | 238 | 1.6 | 4.8 | 0.00 | 0.00 | 0.00 | 57 | 1012.3 |
| 20260510012028 | 17 | 240 | 0.0 | 0.0 | 0.00 | 0.00 | 0.00 | 56 | 1011.9 |
| 20260510011528 | 17 | 240 | 0.0 | 0.0 | 0.00 | 0.00 | 0.00 | 57 | 1011.9 |
| 20260510011028 | 17 | 240 | 0.0 | 0.0 | 0.00 | 0.00 | 0.00 | 55 | 1011.9 |
| 20260510010528 | 17 | 255 | 0.0 | 0.0 | 0.00 | 0.00 | 0.00 | 55 | 1011.9 |
| 20260510010029 | 17 | 255 | 0.0 | 0.0 | 0.00 | 0.00 | 0.00 | 55 | 1011.7 |
| 20260510005528 | 17 | 255 | 0.0 | 0.0 | 0.00 | 0.00 | 0.00 | 55 | 1011.7 |
| 20260510005028 | 18 | 255 | 0.0 | 0.0 | 0.00 | 0.00 | 0.00 | 55 | 1011.7 |
| 20260510004529 | 18 | 255 | 0.0 | 0.0 | 0.00 | 0.00 | 0.00 | 54 | 1011.6 |
| 20260510004028 | 18 | 257 | 0.0 | 4.8 | 0.00 | 0.00 | 0.00 | 52 | 1011.5 |
| 20260510003528 | 18 | 245 | 0.0 | 4.8 | 0.00 | 0.00 | 0.00 | 53 | 1011.5 |
| 20260510003028 | 19 | 236 | 0.0 | 0.0 | 0.00 | 0.00 | 0.00 | 52 | 1011.6 |
| 20260510002529 | 20 | 238 | 0.0 | 0.0 | 0.00 | 0.00 | 0.00 | 50 | 1011.6 |
| 20260510002028 | 20 | 238 | 0.0 | 0.0 | 0.00 | 0.00 | 0.00 | 48 | 1011.5 |
| 20260510001528 | 20 | 238 | 0.0 | 0.0 | 0.00 | 0.00 | 0.00 | 47 | 1011.5 |
| 20260510001029 | 20 | 238 | 0.0 | 0.0 | 0.00 | 0.00 | 0.00 | 46 | 1011.3 |
| 20260510000528 | 21 | 238 | 0.0 | 3.2 | 0.00 | 0.00 | 0.00 | 45 | 1011.2 |
| 20260510000028 | 21 | 223 | 0.0 | 1.6 | 0.00 | 0.00 | 0.00 | 45 | 1011.1 |
| 20260509235527 | 21 | 224 | 1.6 | 9.7 | 0.00 | 0.00 | 0.00 | 44 | 1011.0 |
| 20260509234527 | 21 | 219 | 0.0 | 3.2 | 0.00 | 0.00 | 0.00 | 44 | 1010.8 |
| 20260509234028 | 21 | 239 | 4.8 | 11.3 | 0.00 | 0.00 | 0.00 | 43 | 1010.8 |
| 20260509233027 | 22 | 274 | 1.6 | 11.3 | 0.00 | 0.00 | 0.00 | 43 | 1010.6 |
| 20260509232528 | 22 | 229 | 3.2 | 8.0 | 0.00 | 0.00 | 0.00 | 42 | 1010.6 |
| 20260509232027 | 22 | 294 | 1.6 | 12.9 | 0.00 | 0.00 | 0.00 | 41 | 1010.6 |
| 20260509231528 | 23 | 205 | 3.2 | 8.0 | 0.00 | 0.00 | 0.00 | 40 | 1010.6 |
| 20260509231028 | 23 | 251 | 4.8 | 12.9 | 0.00 | 0.00 | 0.00 | 40 | 1010.5 |
| 20260509230528 | 23 | 239 | 3.2 | 12.9 | 0.00 | 0.00 | 0.00 | 40 | 1010.5 |
| 20260509230028 | 22 | 281 | 4.8 | 14.5 | 0.00 | 0.00 | 0.00 | 40 | 1010.4 |
| 20260509225028 | 23 | 272 | 3.2 | 12.9 | 0.00 | 0.00 | 0.00 | 40 | 1010.4 |
| 20260509224528 | 23 | 249 | 3.2 | 9.7 | 0.00 | 0.00 | 0.00 | 41 | 1010.4 |
| 20260509224027 | 22 | 307 | 3.2 | 11.3 | 0.00 | 0.00 | 0.00 | 43 | 1010.4 |
| 20260509223027 | 22 | 253 | 1.6 | 3.2 | 0.00 | 0.00 | 0.00 | 46 | 1010.4 |
| 20260509222528 | 22 | 250 | 1.6 | 9.7 | 0.00 | 0.00 | 0.00 | 44 | 1010.3 |
| 20260509222028 | 22 | 222 | 1.6 | 8.0 | 0.00 | 0.00 | 0.00 | 44 | 1010.3 |
| 20260509221528 | 22 | 259 | 0.0 | 1.6 | 0.00 | 0.00 | 0.00 | 44 | 1010.3 |
| 20260509221028 | 22 | 209 | 1.6 | 11.3 | 0.00 | 0.00 | 0.00 | 43 | 1010.4 |
| 20260509220028 | 23 | 222 | 1.6 | 4.8 | 0.00 | 0.00 | 0.00 | 43 | 1010.3 |
| 20260509215527 | 23 | 243 | 3.2 | 12.9 | 0.00 | 0.00 | 0.00 | 43 | 1010.2 |
| 20260509214527 | 23 | 272 | 1.6 | 4.8 | 0.00 | 0.00 | 0.00 | 43 | 1010.2 |
| 20260509213527 | 23 | 299 | 0.0 | 9.7 | 0.00 | 0.00 | 0.00 | 43 | 1010.2 |
| 20260509213028 | 23 | 253 | 1.6 | 4.8 | 0.00 | 0.00 | 0.00 | 43 | 1010.1 |
| 20260509212527 | 23 | 353 | 1.6 | 4.8 | 0.00 | 0.00 | 0.00 | 42 | 1010.0 |
| 20260509211527 | 23 | 219 | 1.6 | 4.8 | 0.00 | 0.00 | 0.00 | 42 | 1009.9 |
| 20260509211027 | 23 | 274 | 1.6 | 9.7 | 0.00 | 0.00 | 0.00 | 42 | 1009.9 |
| 20260509210528 | 23 | 284 | 3.2 | 8.0 | 0.00 | 0.00 | 0.00 | 41 | 1009.9 |
| 20260509210027 | 23 | 234 | 3.2 | 9.7 | 0.00 | 0.00 | 0.00 | 40 | 1009.9 |
| 20260509205528 | 23 | 217 | 6.4 | 12.9 | 0.00 | 0.00 | 0.00 | 39 | 1009.9 |
| 20260509205027 | 23 | 230 | 3.2 | 11.3 | 0.00 | 0.00 | 0.00 | 39 | 1009.8 |
| 20260509204528 | 23 | 290 | 0.0 | 3.2 | 0.00 | 0.00 | 0.00 | 42 | 1009.8 |
| 20260509204027 | 23 | 252 | 0.0 | 3.2 | 0.00 | 0.00 | 0.00 | 40 | 1009.8 |
| 20260509203027 | 23 | 279 | 3.2 | 12.9 | 0.00 | 0.00 | 0.00 | 42 | 1009.8 |
| 20260509202527 | 23 | 359 | 1.6 | 8.0 | 0.00 | 0.00 | 0.00 | 42 | 1009.8 |
| 20260509202027 | 23 | 227 | 1.6 | 11.3 | 0.00 | 0.00 | 0.00 | 41 | 1009.7 |
| 20260509201527 | 23 | 255 | 1.6 | 8.0 | 0.00 | 0.00 | 0.00 | 41 | 1009.7 |
| 20260509201027 | 23 | 226 | 1.6 | 8.0 | 0.00 | 0.00 | 0.00 | 41 | 1009.6 |
| 20260509200527 | 23 | 225 | 8.0 | 19.3 | 0.00 | 0.00 | 0.00 | 40 | 1009.8 |
| 20260509200027 | 23 | 265 | 4.8 | 11.3 | 0.00 | 0.00 | 0.00 | 40 | 1009.7 |
| 20260509195527 | 23 | 257 | 4.8 | 12.9 | 0.00 | 0.00 | 0.00 | 42 | 1009.8 |
| 20260509195028 | 23 | 262 | 4.8 | 9.7 | 0.00 | 0.00 | 0.00 | 41 | 1009.8 |
| 20260509193527 | 23 | 282 | 1.6 | 4.8 | 0.00 | 0.00 | 0.00 | 43 | 1009.7 |
| 20260509192527 | 23 | 274 | 1.6 | 3.2 | 0.00 | 0.00 | 0.00 | 44 | 1009.8 |
| 20260509192028 | 23 | 137 | 1.6 | 3.2 | 0.00 | 0.00 | 0.00 | 44 | 1009.8 |
| 20260509191027 | 23 | 233 | 1.6 | 4.8 | 0.00 | 0.00 | 0.00 | 42 | 1009.9 |